K3MJW-2 Weather Reports


time (UTC)temp
F
wind
direction
speed
knots
gust
knots
rain 1hr
in
rain 24hr
in
rain mn
in
humidity
%
barometer
mb
20260509185534 60 296 4.3 6.1 0.00 0.00 0.00 2
20260509185034 62 256 1.7 7.8 0.00 0.00 0.00 2
20260509184534 61 219 5.2 8.7 0.00 0.00 0.00 2
20260509184034 62 246 4.3 7.8 0.00 0.00 0.00 2
20260509183534 59 273 4.3 8.7 0.00 0.00 0.00 2
20260509183034 59 243 1.7 7.8 0.00 0.00 0.00 2
20260509182534 58 260 5.2 7.8 0.00 0.00 0.00 2
20260509182034 59 222 3.5 7.8 0.00 0.00 0.00 2
20260509181534 59 231 0.9 4.3 0.00 0.00 0.00 2
20260509181034 58 253 0.0 5.2 0.00 0.00 0.00 2
20260509180534 58 245 3.5 7.0 0.00 0.00 0.00 2
20260509180034 57 266 0.9 5.2 0.00 0.00 0.00 2
20260509175533 57 254 2.6 7.0 0.00 0.00 0.00 2
20260509175034 57 260 4.3 6.1 0.00 0.00 0.00 2
20260509174534 57 249 4.3 6.1 0.00 0.00 0.00 2
20260509174034 57 256 4.3 6.1 0.00 0.00 0.00 2
20260509173534 58 226 4.3 6.1 0.00 0.00 0.00 2
20260509173034 58 256 5.2 6.1 0.00 0.00 0.00 2
20260509172533 59 258 5.2 7.8 0.00 0.00 0.00 2
20260509172034 58 258 0.9 7.8 0.00 0.00 0.00 2
20260509171534 58 249 2.6 5.2 0.00 0.00 0.00 2
20260509171034 57 256 5.2 7.0 0.00 0.00 0.00 2
20260509170534 58 250 2.6 6.1 0.00 0.00 0.00 2
20260509170033 59 234 2.6 7.8 0.00 0.00 0.00 2
20260509165534 58 344 0.9 5.2 0.00 0.00 0.00 2
20260509165033 56 244 2.6 6.1 0.00 0.00 0.00 2
20260509164533 56 291 0.0 0.0 0.00 0.00 0.00 2
20260509164033 55 291 0.9 6.1 0.00 0.00 0.00 2
20260509163534 56 250 0.9 6.1 0.00 0.00 0.00 2
20260509163033 56 316 0.0 4.3 0.00 0.00 0.00 2
20260509162534 56 210 0.0 2.6 0.00 0.00 0.00 2
20260509162034 56 225 0.9 5.2 0.00 0.00 0.00 2
20260509161534 55 196 0.0 4.3 0.00 0.00 0.00 2
20260509161034 54 236 0.0 0.0 0.00 0.00 0.00 2
20260509160534 53 236 0.0 4.3 0.00 0.00 0.00 2
20260509160033 53 226 0.9 5.2 0.00 0.00 0.00 2
20260509155533 52 258 0.0 0.0 0.00 0.00 0.00 2
20260509155033 52 258 0.0 0.0 0.00 0.00 0.00 2
20260509154534 52 258 0.0 0.0 0.00 0.00 0.00 2
20260509154034 52 258 0.0 2.6 0.00 0.00 0.00 2
20260509153533 52 258 0.0 0.0 0.00 0.00 0.00 2
20260509153033 52 258 0.0 0.0 0.00 0.00 0.00 2
20260509152533 52 258 0.0 0.0 0.00 0.00 0.00 2
20260509152033 52 258 0.0 1.7 0.00 0.00 0.00 2
20260509151533 52 256 0.0 0.0 0.00 0.00 0.00 2
20260509151033 52 256 0.0 6.1 0.00 0.00 0.00 2
20260509150534 52 208 0.0 0.0 0.00 0.00 0.00 2
20260509150034 52 208 0.0 0.0 0.00 0.00 0.00 2
20260509145534 52 208 0.0 0.0 0.00 0.00 0.00 2
20260509145034 52 208 0.0 0.0 0.00 0.00 0.00 2
20260509144533 52 208 0.0 0.0 0.00 0.00 0.00 2
20260509144033 52 208 0.9 4.3 0.00 0.00 0.00 2
20260509143534 52 172 0.0 0.0 0.00 0.00 0.00 2
20260509143033 51 172 0.9 5.2 0.00 0.00 0.00 2
20260509142533 51 160 1.7 5.2 0.00 0.00 0.00 2
20260509142034 51 248 0.0 0.0 0.00 0.00 0.00 2
20260509141533 51 248 0.0 0.0 0.00 0.00 0.00 2
20260509141033 51 248 0.9 4.3 0.00 0.00 0.00 2
20260509140534 51 217 0.0 4.3 0.00 0.00 0.00 2
20260509140033 51 191 0.9 4.3 0.00 0.00 0.00 2
20260509135534 51 199 0.0 0.0 0.00 0.00 0.00 2
20260509135034 51 199 0.0 1.7 0.00 0.00 0.00 2
20260509134534 51 199 0.0 0.0 0.00 0.00 0.00 2
20260509134034 51 199 0.0 0.0 0.00 0.00 0.00 2
20260509133533 51 199 0.0 2.6 0.00 0.00 0.00 2
20260509133033 51 199 0.0 2.6 0.00 0.00 0.00 2
20260509132533 50 202 0.0 4.3 0.00 0.00 0.00 2
20260509132033 50 206 0.9 6.1 0.00 0.00 0.00 2
20260509131533 50 198 0.0 0.0 0.00 0.00 0.00 2
20260509131033 50 198 0.0 2.6 0.00 0.00 0.00 2
20260509130533 50 233 0.0 4.3 0.00 0.00 0.00 2
20260509130034 50 203 0.0 0.0 0.00 0.00 0.00 2
20260509125533 50 203 0.0 0.0 0.00 0.00 0.00 2
20260509125034 50 203 0.0 0.0 0.00 0.00 0.00 2
20260509124533 50 203 0.0 0.0 0.00 0.00 0.00 2
20260509124033 50 203 0.0 2.6 0.00 0.00 0.00 2
20260509123534 50 203 0.0 0.0 0.00 0.00 0.00 2
20260509123034 50 203 0.0 2.6 0.00 0.00 0.00 2
20260509122533 50 184 0.0 0.0 0.00 0.00 0.00 2
20260509122034 50 184 0.0 0.0 0.00 0.00 0.00 2
20260509121533 50 184 0.0 0.0 0.00 0.00 0.00 2
20260509121033 50 184 0.0 0.0 0.00 0.00 0.00 2
20260509120534 50 184 0.0 0.0 0.00 0.00 0.00 2
20260509120033 50 184 0.0 0.0 0.00 0.00 0.00 2
20260509115534 50 184 0.0 0.0 0.00 0.00 0.00 2
20260509115033 50 184 0.9 5.2 0.00 0.00 0.00 2
20260509114533 50 189 0.0 4.3 0.00 0.00 0.00 2
20260509114033 50 188 0.0 0.0 0.00 0.00 0.00 2
20260509113533 50 188 0.0 0.0 0.00 0.00 0.00 2
20260509113034 50 188 0.0 0.0 0.00 0.00 0.00 2
20260509112533 50 188 0.0 0.0 0.00 0.00 0.00 2
20260509112033 50 188 0.0 0.0 0.00 0.00 0.00 2
20260509111533 50 188 0.0 0.0 0.00 0.00 0.00 2
20260509111033 50 188 0.0 0.0 0.00 0.00 0.00 2
20260509110534 50 188 0.0 0.0 0.00 0.00 0.00 2
20260509110034 50 188 0.0 0.0 0.00 0.00 0.00 2
20260509105533 50 188 0.0 4.3 0.00 0.00 0.00 2
20260509105034 50 195 0.9 4.3 0.00 0.00 0.00 2
20260509104533 50 233 0.0 4.3 0.00 0.00 0.00 2
20260509104033 50 192 0.9 5.2 0.00 0.00 0.00 2
20260509103534 50 219 0.9 5.2 0.00 0.00 0.00 2
20260509103033 50 175 0.9 4.3 0.00 0.00 0.00 2
20260509102534 50 175 0.0 0.0 0.00 0.00 0.00 2
20260509102034 50 175 0.0 0.0 0.00 0.00 0.00 2
20260509101533 49 175 0.0 0.0 0.00 0.00 0.00 2
20260509101033 49 175 0.0 2.6 0.00 0.00 0.00 2
20260509100534 49 274 0.0 0.0 0.00 0.00 0.00 2
20260509100034 49 274 0.0 0.0 0.00 0.00 0.00 2
20260509095533 49 274 0.0 0.0 0.00 0.00 0.00 2
20260509095033 49 274 0.0 0.0 0.00 0.00 0.00 2
20260509094533 49 274 0.0 0.0 0.00 0.00 0.00 2
20260509094033 49 274 0.0 0.0 0.00 0.00 0.00 2
20260509093533 49 274 0.0 0.0 0.00 0.00 0.00 2
20260509093034 49 274 0.0 0.0 0.00 0.00 0.00 2
20260509092533 49 274 0.0 0.0 0.00 0.00 0.00 2
20260509092033 48 274 0.0 0.0 0.00 0.00 0.00 2
20260509091533 48 274 0.0 0.0 0.00 0.00 0.00 2
20260509091033 48 274 0.0 0.0 0.00 0.00 0.00 2
20260509090533 48 274 0.0 0.0 0.00 0.00 0.00 2
20260509090034 48 274 0.0 0.0 0.00 0.00 0.00 2
20260509085533 48 274 0.0 0.0 0.00 0.00 0.00 2
20260509085033 48 274 0.0 0.0 0.00 0.00 0.00 2
20260509084533 47 274 0.0 0.0 0.00 0.00 0.00 2
20260509084033 47 274 0.0 0.0 0.00 0.00 0.00 2
20260509083533 48 274 0.0 0.0 0.00 0.00 0.00 2
20260509083033 47 274 0.0 0.0 0.00 0.00 0.00 2
20260509082533 47 274 0.0 0.0 0.00 0.00 0.00 2
20260509082033 48 274 0.0 0.0 0.00 0.00 0.00 2
20260509081533 47 274 0.0 0.0 0.00 0.00 0.00 2
20260509081033 48 274 0.0 0.0 0.00 0.00 0.00 2
20260509080533 47 274 0.0 0.0 0.00 0.00 0.00 2
20260509080033 47 274 0.0 0.0 0.00 0.00 0.00 2
20260509075533 48 274 0.0 0.0 0.00 0.00 0.00 2
20260509075033 48 274 0.0 0.0 0.00 0.00 0.00 2
20260509074534 48 274 0.0 0.0 0.00 0.00 0.00 2
20260509074033 48 274 0.0 0.0 0.00 0.00 0.00 2
20260509073533 48 274 0.0 0.0 0.00 0.00 0.00 2
20260509073033 48 274 0.0 0.0 0.00 0.00 0.00 2
20260509072533 48 274 0.0 0.0 0.00 0.00 0.00 2
20260509072033 48 274 0.0 0.0 0.00 0.00 0.00 2
20260509071533 48 274 0.0 0.0 0.00 0.00 0.00 2
20260509071033 48 274 0.0 0.0 0.00 0.00 0.00 2
20260509070533 48 274 0.0 0.0 0.00 0.00 0.00 2
20260509070034 48 274 0.0 0.0 0.00 0.00 0.00 2
20260509065533 48 274 0.0 0.0 0.00 0.00 0.00 2
20260509065033 48 274 0.0 0.0 0.00 0.00 0.00 2
20260509064533 48 274 0.0 0.0 0.00 0.00 0.00 2
20260509064033 48 274 0.0 0.0 0.00 0.00 0.00 2
20260509063533 48 274 0.0 0.0 0.00 0.00 0.00 2
20260509063033 48 274 0.0 0.0 0.00 0.00 0.00 2
20260509062533 48 274 0.0 0.0 0.00 0.00 0.00 2
20260509062033 48 274 0.0 0.0 0.00 0.00 0.00 2
20260509061533 48 274 0.0 0.0 0.00 0.00 0.00 2
20260509061033 48 274 0.0 0.0 0.00 0.00 0.00 2
20260509060533 48 274 0.0 0.0 0.00 0.00 0.00 2
20260509060034 48 274 0.0 0.0 0.00 0.00 0.00 2
20260509055533 48 274 0.0 0.0 0.00 0.00 0.00 2
20260509055033 48 274 0.0 0.0 0.00 0.00 0.00 2
20260509054533 48 274 0.0 0.0 0.00 0.00 0.00 2
20260509054033 48 274 0.0 0.0 0.00 0.00 0.00 2
20260509053534 48 274 0.0 0.0 0.00 0.00 0.00 2
20260509053033 48 274 0.0 0.0 0.00 0.00 0.00 2
20260509052533 48 274 0.0 0.0 0.00 0.00 0.00 2
20260509052033 48 274 0.0 0.0 0.00 0.00 0.00 2
20260509051533 48 274 0.0 0.0 0.00 0.00 0.00 2
20260509051033 48 274 0.0 0.0 0.00 0.00 0.00 2
20260509050533 48 274 0.0 0.0 0.00 0.00 0.00 2
20260509050033 48 274 0.0 0.0 0.00 0.00 0.00 2
20260509045533 48 274 0.0 0.0 0.00 0.00 0.00 2
20260509045033 48 274 0.0 0.0 0.00 0.00 0.00 2
20260509044533 48 274 0.0 0.0 0.00 0.00 0.00 2
20260509044033 48 274 0.0 0.0 0.00 0.00 0.00 2
20260509043533 48 274 0.0 0.0 0.00 0.00 0.00 2
20260509043033 48 274 0.0 0.0 0.00 0.00 0.00 2
20260509042533 48 274 0.0 0.0 0.00 0.00 0.00 2
20260509042033 48 274 0.0 0.0 0.00 0.00 0.00 2
20260509041534 48 274 0.0 0.0 0.00 0.00 0.00 2
20260509041033 48 274 0.0 0.0 0.00 0.00 0.00 2
20260509040534 48 274 0.0 0.0 0.00 0.00 0.00 2
20260509040033 49 274 0.0 0.0 0.00 0.00 0.00 2
20260509035533 49 274 0.0 0.0 0.00 0.00 0.00 2
20260509035034 49 274 0.0 0.0 0.00 0.00 0.00 2
20260509034534 49 274 0.0 0.0 0.00 0.00 0.00 2
20260509034034 49 274 0.0 0.0 0.00 0.00 0.00 2
20260509033533 49 274 0.0 0.0 0.00 0.00 0.00 2
20260509033033 49 274 0.0 0.0 0.00 0.00 0.00 2
20260509032533 49 274 0.0 0.0 0.00 0.00 0.00 2
20260509032033 49 274 0.0 0.0 0.00 0.00 0.00 2
20260509031534 49 274 0.0 0.0 0.00 0.00 0.00 2
20260509031034 49 274 0.0 0.0 0.00 0.00 0.00 2
20260509030533 49 274 0.0 0.0 0.00 0.00 0.00 2
20260509030033 49 274 0.0 0.0 0.00 0.00 0.00 2
20260509025533 49 274 0.0 0.0 0.00 0.00 0.00 2
20260509025033 49 274 0.0 0.0 0.00 0.00 0.00 2
20260509024534 49 274 0.0 0.0 0.00 0.00 0.00 2
20260509024034 49 274 0.0 0.0 0.00 0.00 0.00 2
20260509023533 49 274 0.0 0.0 0.00 0.00 0.00 2
20260509023033 49 274 0.0 0.0 0.00 0.00 0.00 2
20260509022534 50 274 0.0 0.0 0.00 0.00 0.00 2
20260509022034 50 274 0.0 0.0 0.00 0.00 0.00 2
20260509021533 50 274 0.0 0.0 0.00 0.00 0.00 2
20260509021033 50 276 0.9 4.3 0.00 0.00 0.00 2
20260509020533 50 0 0.0 0.0 0.00 0.00 0.00 2
20260509020033 50 0 0.0 0.0 0.00 0.00 0.00 2
20260509015534 50 0 0.0 0.0 0.00 0.00 0.00 2
20260509015034 50 0 0.0 0.0 0.00 0.00 0.00 2
20260509014533 50 0 0.0 0.0 0.00 0.00 0.00 2
20260509014034 50 0 0.0 0.0 0.00 0.00 0.00 2
20260509013533 51 0 0.0 0.0 0.00 0.00 0.00 2
20260509013033 50 0 0.0 0.0 0.00 0.00 0.00 2
20260509012533 51 0 0.0 0.0 0.00 0.00 0.00 2
20260509012033 51 0 0.0 0.0 0.00 0.00 0.00 2
20260509011533 50 0 0.0 0.0 0.00 0.00 0.00 2
20260509011033 50 0 0.0 0.0 0.00 0.00 0.00 2
20260509010533 51 0 0.0 0.0 0.00 0.00 0.00 2
20260509010033 51 0 0.0 0.0 0.00 0.00 0.00 2
20260509005533 51 0 0.0 0.0 0.00 0.00 0.00 2
20260509005033 51 0 0.0 0.0 0.00 0.00 0.00 2
20260509004533 51 0 0.0 0.0 0.00 0.00 0.00 2
20260509004033 51 0 0.0 0.0 0.00 0.00 0.00 2
20260509003533 51 0 0.0 0.0 0.00 0.00 0.00 2
20260509003033 51 0 0.0 0.0 0.00 0.00 0.00 2
20260509002533 51 0 0.0 0.0 0.00 0.00 0.00 2
20260509002033 51 0 0.0 0.0 0.00 0.00 0.00 2
20260509001534 52 0 0.0 0.0 0.00 0.00 0.00 2
20260509001033 52 0 0.0 0.0 0.00 0.00 0.00 2
20260509000533 52 0 0.0 0.0 0.00 0.00 0.00 2
20260509000033 52 0 0.0 0.0 0.00 0.00 0.00 2
20260508235533 52 0 0.0 0.0 0.00 0.00 0.00 2
20260508235033 52 0 0.0 0.0 0.00 0.00 0.00 2
20260508234533 52 0 0.0 0.0 0.00 0.00 0.00 2
20260508234033 52 0 0.0 0.0 0.00 0.00 0.00 2
20260508233534 53 0 0.0 0.0 0.00 0.00 0.00 2
20260508233033 53 0 0.0 0.0 0.00 0.00 0.00 2
20260508232533 53 0 0.0 0.0 0.00 0.00 0.00 2
20260508232033 53 0 0.0 0.0 0.00 0.00 0.00 2
20260508231533 53 0 0.0 0.0 0.00 0.00 0.00 2
20260508231033 53 0 0.0 0.0 0.00 0.00 0.00 2
20260508230533 53 0 0.0 0.0 0.00 0.00 0.00 2
20260508230034 53 0 0.0 0.0 0.00 0.00 0.00 2
20260508225533 53 0 0.0 0.0 0.00 0.00 0.00 2
20260508225033 53 0 0.0 0.0 0.00 0.00 0.00 2
20260508224533 54 0 0.0 0.0 0.00 0.00 0.00 2
20260508224033 54 0 0.0 0.0 0.00 0.00 0.00 2
20260508223533 54 0 0.0 0.0 0.00 0.00 0.00 2
20260508223033 54 0 0.0 0.0 0.00 0.00 0.00 2
20260508222533 54 0 0.0 0.0 0.00 0.00 0.00 2
20260508222033 55 0 0.0 0.0 0.00 0.00 0.00 2
20260508221533 55 0 0.0 0.0 0.00 0.00 0.00 2
20260508221034 55 0 0.0 0.0 0.00 0.00 0.00 2
20260508220533 55 0 0.0 0.0 0.00 0.00 0.00 2
20260508220033 55 0 0.0 0.0 0.00 0.00 0.00 2
20260508215533 55 0 0.0 0.0 0.00 0.00 0.00 2
20260508215033 55 0 0.0 0.0 0.00 0.00 0.00 2
20260508214533 55 0 0.0 0.0 0.00 0.00 0.00 2
20260508214033 55 0 0.0 0.0 0.00 0.00 0.00 2
20260508213533 55 0 0.0 0.0 0.00 0.00 0.00 2
20260508213033 55 0 0.0 0.0 0.00 0.00 0.00 2
20260508212533 55 0 0.0 0.0 0.00 0.00 0.00 2
20260508212032 55 0 0.0 0.0 0.00 0.00 0.00 2
20260508211533 55 0 0.0 0.0 0.00 0.00 0.00 2
20260508211033 55 0 0.0 0.0 0.00 0.00 0.00 2
20260508210533 55 0 0.0 0.0 0.00 0.00 0.00 2
20260508210033 55 0 0.0 0.0 0.00 0.00 0.00 2
20260508205533 55 0 0.0 0.0 0.00 0.00 0.00 2
20260508205033 54 0 0.0 0.0 0.00 0.00 0.00 2
20260508204533 54 264 0.0 0.0 0.00 0.00 0.00 2
20260508204033 54 264 0.0 0.0 0.00 0.00 0.00 2
20260508203533 54 264 0.0 0.0 0.00 0.00 0.00 2
20260508203033 54 264 0.0 0.0 0.00 0.00 0.00 2
20260508202533 54 264 0.0 0.0 0.00 0.00 0.00 2
20260508202033 54 264 0.0 0.0 0.00 0.00 0.00 2
20260508201533 54 264 0.0 0.0 0.00 0.00 0.00 2
20260508201033 54 264 0.0 4.3 0.00 0.00 0.00 2
20260508200533 54 291 0.9 5.2 0.00 0.00 0.00 2
20260508200033 54 265 0.0 0.0 0.00 0.00 0.00 2
20260508195532 54 265 0.0 4.3 0.00 0.00 0.00 2
20260508195033 54 294 3.5 5.2 0.00 0.00 0.00 2
20260508194533 54 277 1.7 4.3 0.00 0.00 0.00 2
20260508194033 54 268 3.5 5.2 0.00 0.00 0.00 2
20260508193533 54 280 4.3 6.1 0.00 0.00 0.00 2
20260508193033 55 273 5.2 7.8 0.00 0.00 0.00 2
20260508192533 55 281 6.1 8.7 0.00 0.00 0.00 2
20260508192033 55 284 4.3 7.0 0.00 0.00 0.00 2
20260508191532 55 295 5.2 7.0 0.00 0.00 0.00 2
20260508191033 56 286 5.2 7.0 0.00 0.00 0.00 2
20260508190533 56 270 5.2 8.7 0.00 0.00 0.00 2
20260508190033 56 273 6.1 10.4 0.00 0.00 0.00 2